Salt Flat, TX

10:16 PM MST on January 20, 2017 (GMT -0700)
Guadalupe Pass

Weather History for KGDP - November, 2013

Change the Weather History Date:

Saturday, November 23, 2013

  Actual Average Record
Temperature  
Mean Temperature 24 °F -  
Max Temperature 27 °F 54 °F 69 °F (2002)
Min Temperature 21 °F 36 °F 21 °F (2007)
Degree Days  
Heating Degree Days 41    
Moisture  
Dew Point 23 °F    
Average Humidity 94    
Maximum Humidity 100    
Minimum Humidity 91    
Precipitation  
Precipitation 0.00 in - - ()
Sea Level Pressure  
Sea Level Pressure 30.31 in    
Wind  
Wind Speed 44 mph (ENE)    
Max Wind Speed 47 mph    
Max Gust Speed 99 mph    
Averages and records for this station are not official NWS values.
T = Trace of Precipitation, MM = Missing Value Source: NWS Daily Summary

Daily Weather History Graph

Daily Weather History Graph

Search for Another Location

Airport or City:

Trip Planner

Search our weather history database for the weather conditions in past years. The results will help you decide how hot, cold, wet, or windy it might be!

Date:

Astronomy

Nov. 23, 2013 Rise Set
Actual Time 6:34 AM MST 4:56 PM MST
Civil Twilight 6:08 AM MST 5:22 PM MST
Nautical Twilight 5:38 AM MST 5:52 PM MST
Astronomical Twilight 5:09 AM MST 6:21 PM MST
Moon 10:18 PM MST (11/23) 11:00 AM MST (11/23)
Length of Visible Light 11h 13m
Length of Day
10h 21m
Waning Gibbous, 69% of the Moon is Illuminated
Nov 23
Waning Gibbous
Nov 25
Last Quarter
Dec 2
New
Dec 9
First Quarter
Dec 17
Full

Hourly Weather History & Observations

Time (MST) Temp. Windchill Dew Point Humidity Pressure Visibility Wind Dir Wind Speed Gust Speed Precip Events Conditions
12:25 AM 21.9 °F 0.9 °F 21.9 °F 100% 30.28 in 0.5 mi ENE 44.9 mph - 0.00 in Fog , Rain Light Freezing Rain
12:42 AM 21.9 °F 1.1 °F 21.9 °F 100% 30.27 in 0.5 mi ENE 43.7 mph - 0.00 in Fog , Snow Light Snow
12:51 AM 23.0 °F 2.4 °F 21.9 °F 96% 30.35 in 0.5 mi ENE 44.9 mph - 0.00 in Fog , Snow Light Snow
1:15 AM 23.0 °F 2.4 °F 21.0 °F 92% 30.26 in 0.2 mi ENE 44.9 mph 72.5 mph 0.00 in Fog , Snow Light Freezing Fog
1:22 AM 23.0 °F 2.2 °F 21.9 °F 96% 30.27 in 0.2 mi ENE 46.0 mph 72.5 mph 0.00 in Fog , Rain Light Freezing Rain
1:44 AM 23.0 °F - 21.9 °F 96% 30.26 in 0.2 mi North - - 0.00 in Fog , Snow Light Snow
1:51 AM 23.0 °F - 21.9 °F 96% 30.37 in 0.2 mi North - - 0.00 in Fog , Snow Snow
2:24 AM 24.1 °F 5.9 °F 21.9 °F 91% 30.27 in 0.5 mi ENE 34.5 mph - 0.00 in Fog , Snow Snow
2:51 AM 23.0 °F 4.1 °F 21.9 °F 96% 30.37 in 0.5 mi ENE 35.7 mph 80.6 mph 0.00 in Fog Light Freezing Fog
3:11 AM 23.0 °F 2.0 °F 21.9 °F 96% 30.24 in 0.5 mi ENE 47.2 mph 99.0 mph N/A Fog Light Freezing Fog
3:32 AM 24.1 °F 3.9 °F 21.9 °F 91% 30.24 in 0.5 mi ENE 44.9 mph - N/A Fog Light Freezing Fog
3:51 AM 24.1 °F 3.9 °F 21.9 °F 91% 30.36 in 0.5 mi ENE 44.9 mph - N/A Fog Light Freezing Fog
4:23 AM 24.1 °F - 21.9 °F 91% 30.24 in 0.2 mi North - - N/A Fog Light Freezing Fog
4:47 AM 24.8 °F - 23.0 °F 93% 30.26 in 0.5 mi North - - N/A Fog Light Freezing Fog
4:51 AM 24.1 °F - 23.0 °F 96% 30.36 in 0.5 mi North - - N/A Fog Light Freezing Fog
5:51 AM 25.0 °F - 23.0 °F 92% 30.40 in 0.5 mi North - - N/A Fog Light Freezing Fog
6:51 AM 25.0 °F - 23.0 °F 92% 30.41 in 0.5 mi North - - N/A Fog Light Freezing Fog
7:11 AM 26.1 °F - 24.1 °F 92% 30.31 in 0.2 mi North - - N/A Fog Light Freezing Fog
7:51 AM 26.1 °F - 24.1 °F 92% 30.41 in 0.2 mi North - - N/A Fog Light Freezing Fog
7:59 AM 26.1 °F - 24.1 °F 92% 30.31 in 0.5 mi North - - N/A Fog Light Freezing Fog
8:18 AM 27.0 °F - 25.0 °F 92% 30.31 in 0.5 mi North - - N/A Fog Light Freezing Fog
8:35 AM 27.0 °F - 25.0 °F 92% 30.32 in 0.5 mi North - - N/A Fog Light Freezing Fog
8:43 AM 27.0 °F - 25.0 °F 92% 30.33 in 0.5 mi North - - N/A Fog Light Freezing Fog
8:49 AM 26.6 °F - 24.8 °F 93% - - North - - N/A   Unknown
8:51 AM 27.0 °F - 25.0 °F 92% - - North - - N/A   Unknown
9:51 AM - - - N/A% - - North - - N/A   Unknown